www.pogodaiklimat.ru

Погода и климат >> Архив погоды >> Россия >> Краснодарский край >> Горный


ПОГОДА в Горном

  • Прогноз погоды в Горном
  • Монитор погоды в Горном

АРХИВ ПОГОДЫ в Горном

Время (UTC), дата Ветер
(напр.,м/с)
 
Видим.   Явления Облачность Т
(С)
Тd
(С)
f
(%)
Тe
(С)
Тes
(С)
Комфортность P
(гПа)
Po
(гПа)
Тmin
(С)
Tmax
(С)
R
(мм)
R24
(мм)
S
(см)
03 14.05 штиль 0 500 м туман 1/0
[Ac lent]
+6.8 +6.0 95 +6 +7 1021.4 982.2 +5.8
06 14.05 ЮЗ 1 50 км {туман} 3/0
[Ci fib]
+16.2 +5.8 50 +17 +28 1019.6 981.7
09 14.05 ЮЗ 3 50 км 1/0
[Ci fib]
+21.0 +4.5 34 +22 +37 комфорт 1018.5 981.2
12 14.05 ЮЗ 4-10
{10}
50 км 3/0
[Ci]
+21.9 +2.6 28 +22 +30 комфорт 1017.8 980.7
15 14.05 ЮЗ 1
{10}
50 км 1/0
[Ci fib]
+21.2 +1.9 28 +21 +23 комфорт 1017.8 980.5 +22.3
18 14.05 штиль 0 50 км 4/0
[Ci fib]
+12.4 +7.6 73 +12 +12 1019.9 981.5
21 14.05 С 1 50 км 8/0
[Ci]
+10.7 +6.9 77 +10 +10 1020.1 981.5
00 15.05 С 1 50 км 3/0
[Ci fib]
+8.8 +7.0 88 +8 +8 1019.5 980.7
03 15.05 С 1 50 км 8/0
[Ci fib]
+8.4 +6.5 88 +8 +8 1019.3 980.4 +6.6
06 15.05 В 1 50 км 6/0
[Cs]
+19.0 +9.0 52 +21 +31 комфорт 1018.4 980.9
09 15.05 С 1 50 км 4/0
[Ci fib]
+24.1 +10.8 43 +25 +45 комфорт 1016.7 980.0
15 15.05 СВ 4 50 км 5/0
[Ci fib]
+23.7 +7.8 36 +24 +25 комфорт 1014.7 977.9 +25.8
18 15.05 СВ 3
{10}
50 км 8/0
[Ac lent Ci]
+20.6 +7.7 43 +22 +22 комфорт 1015.3 978.2
21 15.05 С 2 50 км 10/0
[Cs]
+17.7 +10.0 61 +18 +18 1014.7 977.2
00 16.05 СВ 1 50 км 3/0
[Ci fib]
+13.9 +10.6 80 +14 +14 1014.4 976.4
03 16.05 штиль 0 50 км 3/0
[Ci fib]
+12.6 +10.2 85 +12 +13 1013.4 975.3 +11.4
06 16.05 СВ 3
{10}
50 км ясно +22.4 +8.8 42 +24 +32 комфорт 1012.0 975.2
09 16.05 СВ 4
{10}
50 км 1/0
[Ci fib]
+26.5 +7.2 29 +26 +38 жарко 1010.7 974.4
12 16.05 СВ 4
{10}
50 км ясно +28.4 +5.5 23 +27 +36 жарко 1009.1 973.1
15 16.05 СВ 4
{11}
50 км ясно +27.2 +9.6 33 +28 +29 жарко 1008.3 972.2 +28.6
18 16.05 С 2 50 км ясно +22.0 +9.6 45 +24 +24 комфорт 1009.5 972.8
21 16.05 штиль 0 50 км 3/0
[Ci]
+15.1 +12.4 84 +15 +15 1010.7 973.1
00 17.05 штиль 0 н/о н/о +12.1 +10.8 92 +11 +11 1011.2 973.2
03 17.05 штиль 0 50 км местами туман поземный 10/0
[Cc]
+11.8 +10.2 90 +11 +12 1011.2 973.1 +10.8
06 17.05 ЮЗ 4-10
{10}
50 км 10/0
[Cs]
+22.0 +9.6 45 +24 +29 комфорт 1010.3 973.5
09 17.05 ЮЗ 4
{10}
50 км 10/0
[Cs]
+25.9 +5.9 28 +25 +35 комфорт 1010.2 973.9
12 17.05 СВ 2 50 км 6/1 1000 м
[Cu hum Cc]
+28.7 +12.7 37 +30 +40 жарко 1009.0 973.0
15 17.05 СВ 3 50 км 4/0
[Ci]
+26.2 +13.0 44 +28 +30 жарко 1007.8 971.6 +28.8
18 17.05 СВ 3 50 км 4/0
[Ci]
+26.2 +13.0 44 +28 +28 жарко 1007.8 971.6 +28.8
21 17.05 штиль 0 50 км 8/0
[Ci]
+16.8 +15.7 93 +17 +17 1008.2 970.9
00 18.05 штиль 0 н/о н/о +14.6 +13.5 93 +14 +14 1007.9 970.2
03 18.05 штиль 0 50 км 10/3 600 м
[Sc Ac lent Cs]
+14.1 +13.0 93 +14 +14 1007.3 969.6 +13.5
06 18.05 штиль 0 50 км 5/1 600 м
[Sc Ac cast Ci fib]
+23.2 +15.4 62 +27 +37 душно 1005.5 969.0
09 18.05 СВ 3 50 км 3/1 600 м
[Sc Ci fib]
+29.3 +15.1 42 +32 +45 душно 1004.6 968.9
12 18.05 СВ 4 50 км 1/0
[Ci fib]
+29.3 +11.6 33 +30 +38 жарко 1003.9 968.2
15 18.05 СВ 4 50 км 3/0
[Ci fib]
+27.0 +13.9 45 +29 +31 жарко 1002.9 967.0 +29.8
18 18.05 штиль 0 50 км 5/0
[Ac cast Ci fib]
+21.2 +13.1 60 +24 +24 комфорт 1004.3 967.6
21 18.05 штиль 0 50 км 8/8 600 м
[Sc Ac cast]
+18.6 +15.6 83 +19 +19 1004.4 967.5
00 19.05 ЮЗ 5-11
{13}
50 км 10/8 600 м
[Sc Ci fib]
+20.0 +14.8 72 +22 +22 комфорт 1004.2 967.4
03 19.05 ЮЗ 4
{12}
50 км 8/4 600 м
[Sc Ac cast Ci sp]
+19.5 +15.5 78 +21 +22 комфорт 1005.5 968.7 +16.6
06 19.05 З 2 50 км 9/9 600 м
[Sc diur, vesp]
+20.3 +14.2 68 +23 +24 комфорт 1007.3 970.4
09 19.05 ЮЗ 6-11
{13}
20 км 10/10 600 м
[Cu Sc]
+19.3 +14.9 76 +20 +20 1008.8 971.7
12 19.05 ЮЗ 4
{12}
20 км гроза без осадков 9/9 600 м
[Cb cap]
+20.6 +15.0 70 +24 +24 комфорт 1010.2 973.3
15 19.05 ЮЗ 2
{12}
20 км {гроза} 10/10 600 м
[Sc diur, vesp]
+19.2 +13.7 70 +21 +21 комфорт 1011.1 973.9 +22.6
18 19.05 штиль 0 50 км {гроза} 4/4 600 м
[Sc diur, vesp]
+15.6 +14.2 91 +15 +15 1012.0 974.3
21 19.05 ЮЗ 3 20 км 10/10 600 м
[Sc diur, vesp]
+16.7 +13.5 81 +16 +16 1012.4 974.9
00 20.05 ЮЗ 4 20 км 10/10 600 м
[Sc]
+16.4 +13.4 82 +16 +16 1013.4 975.8
03 20.05 ЮЗ 2 20 км гроза без осадков 10/10 600 м
[Cb cap]
+16.1 +14.5 90 +16 +16 1013.7 976.1 +15.2
06 20.05 штиль 0 10 км гроза, ливневой дождь 10/10 600 м
[Cb cap]
+15.4 +15.2 99 +15 +15 1015.6 977.8
09 20.05 штиль 0 20 км {гроза, ливн. осадки} 10/10 600 м
[Cb calv]
+17.1 +15.5 90 +17 +17 1016.2 978.6
12 20.05 С 1 50 км {гроза, ливн. осадки} 8/6 600 м
[Cb calv Ci ing]
+21.0 +15.1 69 +25 +31 комфорт 1014.8 977.8
15 20.05 СВ 3 50 км 4/1 600 м
[Cu med, cong Ci fib]
+19.8 +13.2 66 +22 +23 комфорт 1014.8 977.6 +21.0 14
18 20.05 штиль 0 50 км ясно +14.4 +13.3 93 +14 +14 1016.3 978.3

 

Местоположение метеостанции Горный (Краснодарский край, Россия): широта 44.28 долгота 39.27 высота над уровнем моря 323 м.

В архиве по умолчанию представлена погода в Горном за последнюю неделю. Архивные данные за месяц целиком и за предыдущие месяцы, начиная с января 2011 года, Вы можете получить, выбрав интересующий диапазон дат из раскрывающегося списка и нажав кнопку "Ввод!".


*Определитесь, кто Вы:
робот инопланетянин человек

Внимание! Время в таблицах - всемирное. Для получения местного времени необходимо прибавить поправку, которая равна 3 ч.

Смотрите также архив погоды в соседних городах и на ближайших метеорологических станциях:

Погода в Туапсе (Краснодарский край, Россия) (26 км)
Погода в Магри (Краснодарский край, Россия) (30 км)
Погода в Горячем Ключе (Краснодарский край, Россия) (41 км)
Погода в Лазаревском (Краснодарский край, Россия) (43 км)
Погода в Джубге (Краснодарский край, Россия) (44 км)
Погода в Кичмае (Краснодарский край, Россия) (54 км)
Погода в Солох Ауле (Краснодарский край, Россия) (61 км)
Погода в Шунтуке (Адыгея, Россия) (71 км)
Погода в Белореченске (Краснодарский край, Россия) (72 км)
Погода в Майкопе (Адыгея, Россия) (75 км)

Пояснения к столбцам:

Ветер - указаны скорость ветра в м/с - средняя за 10 мин, порывы в срок и между сроками (в фигурных скобках) и направление, откуда дует ветер: С - северный, СВ - северо-восточный, В - восточный, ЮВ - юго-восточный, Ю - южный, ЮЗ - юго-западный, З - западный, СЗ - северо-западный.
Видимость - горизонтальная дальность видимости в метрах или километрах. При видимости от 1 до 10 км при отсутствии осадков обычно наблюдается дымка, при ухудшении видимости до 1 км и менее - туман. В сухую погоду видимость может ухудшаться дымом, пылью или мглою.
Явления - указаны атмосферные явления, наблюдавшиеся в срок или в последний час перед сроком; фигурными скобками обозначены явления, наблюдавшиеся между сроками (за 1-3 часа до срока); квадратными скобками обозначены град или гололедные отложения с указанием их диаметра в мм.
Облачность - указаны через наклонную черту общая и нижняя облачность в баллах и высота нижней границы облаков в метрах; квадратными скобками обозначены формы облаков: Ci - перистые, Cs - перисто-слоистые, Cc - перисто-кучевые, Ac - высококучевые, As - высокослоистые, Sc - слоисто-кучевые, Ns - слоисто-дождевые, Cu - кучевые, Cb - кучево-дождевые. Подробнее классификацию облаков см. в Атласе облаков (PDF).
T - Температура воздуха - температура, измеренная на высоте 2 м над землей.
Td - Температура точки росы - температура, при понижении до которой содержащийся в воздухе водяной пар достигнет насыщения.
f - Относительная влажность воздуха - влажноcть воздуха, измеренная на высоте 2 м над землей.
Te - Эффективная температура - температура, которую ощущает одетый по сезону человек в тени. Характеристика душности погоды. При расчете учитывается влияние влажности воздуха и скорости ветра на теплоощущения человека.
Tes - Эффективная температура на солнце - температура, которую ощущает человек, с поправкой на солнечный нагрев. Характеристика знойности погоды. Зависит от высоты солнца над горизонтом, облачности и скорости ветра. Ночью, в пасмурную погоду, а также при ветре 12 м/с и более поправка равна нулю.
P - Атмосферное давление - приведенное к уровню моря атмосферное давление.
Po - Атмосферное давление - измеренное на уровне метеостанции атмосферное давление.
Tmin - Минимальная температура - минимум температуры воздуха на высоте 2 м над землей.
Tmax - Максимальная температура - максимум температуры воздуха на высоте 2 м над землей.
R - Количество осадков - Количество выпавших осадков за период времени, мм. При наведении курсора мыши на число - период времени, за который выпало указанное количество осадков.
R24 - Количество осадков - Количество выпавших осадков за 24 часа, мм.
S - Снежный покров - Высота снежного покрова, см. При наведении курсора мыши на число - состояние снежного покрова и степень покрытия местности в баллах.